Theta_e
294 292 289 290 290 289 290 289 286 287 288 288 288 287 288 290 290 290 290 290 289 289 291 292 292 293 292 292 292 294 294 295 296 296 295 295 295 296 296 296 296 296 297 298
292 289 290 290 290 289 289 287 286 286 287 288 287 286 288 289 290 290 290 289 288 289 290 291 291 292 292 291 291 293 294 295 295 295 296 296 296 296 295 295 295 295 295 296
290 289 290 289 288 287 287 287 285 286 286 288 287 285 285 287 288 289 289 289 288 288 287 288 289 291 292 291 290 292 293 293 294 293 293 293 294 293 292 292 292 293 294 294
289 290 288 288 286 287 283 287 287 285 284 283 287 282 284 286 285 286 287 288 288 287 287 288 288 289 290 290 292 292 293 293 292 292 291 290 289 288 290 290 292 292 293 292
286 287 286 286 286 288 286 288 287 285 284 283 282 280 285 287 284 285 287 287 287 287 286 286 287 289 290 291 291 292 293 291 290 291 291 290 289 290 290 290 290 290 291 292
287 290 289 288 288 289 289 286 286 285 283 279 283 281 283 283 285 287 288 287 286 286 286 287 288 289 289 291 292 291 290 289 289 289 289 288 287 288 288 288 288 289 289 290
285 286 288 290 286 288 286 284 282 280 278 279 280 278 283 287 288 289 287 286 286 286 286 286 286 287 288 289 289 289 288 287 288 288 287 287 286 287 286 286 286 287 288 288
282 279 286 289 287 285 284 284 285 278 278 279 278 277 282 288 289 290 289 287 286 285 285 285 286 287 288 287 287 287 286 286 286 286 286 286 285 285 285 285 285 285 286 287
283 282 285 286 287 287 283 279 283 279 272 276 281 282 284 285 285 285 285 284 284 284 285 285 286 286 286 285 285 285 285 284 284 284 284 283 283 283 283 283 284 284 285 285
287 280 283 284 287 286 284 284 278 281 276 275 278 277 281 280 282 283 283 283 284 284 285 285 285 285 284 284 284 284 284 283 283 283 283 282 282 282 282 281 281 281 282 283
287 287 280 283 282 282 280 280 280 280 280 278 277 281 286 286 285 284 284 285 285 284 284 284 284 284 283 283 283 283 283 282 281 281 281 281 281 281 280 279 279 279 280 281
287 286 279 281 282 283 285 282 282 282 278 277 276 279 284 286 288 287 286 285 285 285 284 284 284 283 282 282 281 281 281 281 280 280 280 279 279 279 278 277 277 277 277 278
285 284 279 277 279 280 280 282 282 279 281 276 278 281 282 283 285 287 286 285 283 283 283 283 282 282 281 280 280 279 279 279 279 278 277 276 276 276 275 274 274 275 275 275
288 286 286 284 283 282 277 280 281 279 279 280 279 283 280 281 283 285 285 283 283 282 282 282 282 281 281 279 278 277 276 276 276 275 274 272 272 272 272 272 271 271 273 274
286 282 278 279 278 279 280 280 280 277 279 279 282 281 284 284 282 283 284 283 282 281 281 281 281 281 280 278 275 272 272 272 273 271 269 268 269 269 269 269 269 270 271 273
282 281 277 276 277 276 274 278 280 280 280 280 282 280 286 288 285 283 282 282 281 281 281 281 281 280 278 275 273 271 268 268 270 267 266 266 267 266 266 266 267 268 269 271
281 280 279 280 274 274 273 274 277 280 281 280 278 283 286 282 283 282 281 281 281 281 280 280 279 277 277 272 272 267 267 268 266 266 266 265 265 264 265 265 265 267 269 271
282 282 283 279 275 274 283 279 280 280 282 282 283 284 284 283 283 284 284 281 281 281 280 279 278 275 274 270 266 266 266 265 265 265 266 265 263 263 264 264 266 267 270 271
281 284 278 278 276 281 283 279 278 278 279 283 283 284 283 279 280 279 283 284 282 281 279 277 275 272 267 265 264 265 265 264 264 265 265 265 264 263 264 264 266 268 269 270
277 279 283 275 275 275 280 277 282 282 275 283 284 284 284 278 277 283 280 282 279 276 274 270 269 267 264 263 265 266 264 264 263 264 265 265 264 264 265 266 267 269 269 270
273 274 277 279 277 281 285 278 281 275 282 282 285 285 281 278 283 283 279 277 275 271 269 268 265 264 264 263 265 265 265 264 264 265 266 265 265 266 267 268 268 269 269 270
275 274 275 278 275 274 279 277 279 284 279 280 282 284 280 279 277 276 275 272 270 268 269 266 265 264 263 263 267 265 266 264 265 266 266 265 266 267 267 267 268 269 269 269
278 283 278 280 281 282 280 286 283 283 283 279 282 281 281 276 276 275 274 272 270 269 269 267 267 266 264 264 269 268 265 266 265 264 263 265 266 267 267 268 267 268 269 269
277 282 280 281 284 280 280 283 282 280 282 281 282 281 279 278 276 275 274 273 271 270 269 268 268 267 266 267 268 269 266 266 263 263 265 266 266 266 267 268 268 268 268 268
281 279 280 278 279 278 280 281 283 280 279 278 280 280 279 278 276 275 273 272 271 270 269 268 267 268 267 267 267 266 265 264 264 264 265 266 267 266 267 268 267 267 268 269
278 279 278 280 285 284 286 284 283 280 278 278 278 277 279 277 275 274 272 272 271 269 268 267 267 267 267 266 265 264 263 262 263 265 266 266 266 267 267 267 267 270 269 270
Wind_Speed
2 5 6 11 1 3 3 6 10 9 3 4 8 10 12 10 9 9 7 6 4 2 3 4 5 6 7 8 9 11 13 14 11 9 10 9 9 8 9 9 15 15 14 15
4 3 5 4 3 5 7 11 9 6 1 4 8 9 9 11 9 8 7 6 3 1 3 5 5 5 6 7 9 11 13 14 11 10 9 9 10 10 10 10 12 14 15 15
2 7 7 6 7 9 3 4 9 5 7 1 8 10 13 11 9 8 6 4 3 1 2 5 7 7 6 8 8 9 11 13 12 13 9 9 9 9 10 10 10 13 14 15
5 6 6 7 6 2 5 1 6 10 10 3 6 4 15 16 14 13 11 9 6 2 1 4 7 8 6 7 6 7 10 11 11 12 11 13 10 10 10 10 9 10 14 14
5 7 7 7 4 1 5 2 4 2 2 3 8 6 2 17 17 17 14 10 7 3 1 3 6 7 5 6 6 7 9 11 12 12 13 10 12 9 9 10 13 13 11 14
5 3 2 4 7 2 13 9 7 3 1 4 8 8 8 12 21 18 16 12 9 5 1 2 4 4 5 5 6 7 9 10 11 12 13 13 14 13 11 12 10 10 10 10
6 4 3 7 9 6 3 7 2 3 3 4 3 6 12 15 4 17 17 13 10 6 3 2 3 4 5 6 7 6 9 10 11 11 12 13 14 13 13 12 10 12 10 10
10 6 12 10 2 3 11 3 3 5 5 2 3 8 4 1 8 5 13 12 10 7 5 2 2 4 5 5 7 7 8 9 10 11 12 12 13 9 10 11 10 9 9 10
9 5 4 2 2 2 6 7 3 4 2 3 7 5 5 8 10 12 13 12 11 8 6 5 3 3 4 5 6 7 7 8 9 10 10 11 12 13 12 13 12 10 12 11
6 7 2 4 3 3 2 5 3 2 4 6 5 6 9 14 18 17 17 16 13 10 8 6 5 4 3 3 4 5 6 7 8 9 9 9 11 12 12 12 14 14 14 15
7 3 6 5 12 13 6 4 4 3 4 4 5 5 2 14 18 21 19 16 14 12 9 7 6 5 4 2 4 5 6 7 8 9 9 9 10 11 11 11 12 13 14 16
3 3 6 5 4 3 7 6 9 5 6 2 3 8 0 3 11 16 16 15 13 12 10 8 7 6 4 2 3 4 6 7 8 9 9 10 10 11 11 12 13 14 14 14
10 5 5 2 2 4 8 13 8 3 2 9 5 6 2 5 7 12 15 15 13 12 11 9 8 7 5 2 2 4 6 7 8 9 10 11 11 12 11 12 13 13 13 13
4 2 4 8 3 6 8 15 20 10 6 6 19 11 6 9 11 14 16 16 15 14 13 11 9 7 5 3 2 4 6 8 9 9 10 10 11 12 12 11 11 11 11 12
4 5 3 3 3 3 4 8 18 20 23 14 18 19 20 15 15 16 13 14 15 15 14 13 11 9 7 4 3 4 6 8 9 8 8 8 10 10 10 10 10 11 11 11
3 4 3 4 4 5 6 12 16 23 18 25 25 24 6 5 12 13 15 15 16 15 13 12 10 9 8 4 3 3 5 6 6 6 5 7 8 9 9 10 10 10 10 10
8 8 4 5 4 6 10 22 27 18 14 22 22 30 5 8 16 18 18 18 18 16 15 14 11 8 7 6 3 2 2 4 4 4 5 6 7 8 9 10 10 11 11 11
11 7 3 2 2 12 3 3 13 24 22 25 17 9 11 9 9 6 13 18 16 16 15 13 11 9 8 6 4 2 0 2 3 5 5 6 7 8 9 9 10 10 10 10
7 7 5 5 8 14 17 10 10 15 17 28 26 23 10 7 6 8 12 15 15 16 13 11 10 9 7 6 4 3 2 1 2 4 6 6 7 8 8 9 10 10 10 10
2 5 8 5 6 10 5 2 5 8 12 19 24 24 19 14 9 10 17 13 14 14 13 13 11 8 7 5 4 4 3 1 2 4 5 5 6 7 7 9 9 9 9 9
6 3 15 11 9 11 6 11 6 7 6 3 15 17 18 15 5 5 17 13 14 14 14 12 9 8 7 6 5 4 4 2 1 2 4 4 5 7 7 8 8 8 8 8
14 13 8 8 9 20 13 7 10 3 1 1 3 12 17 10 11 13 14 16 16 16 14 11 10 8 6 6 7 6 5 3 1 3 3 4 5 6 6 8 8 8 8 9
11 10 12 16 12 3 23 3 8 1 3 4 5 10 15 15 11 16 17 18 16 17 14 11 11 11 8 7 9 8 6 4 2 2 2 3 4 5 6 7 8 7 8 8
8 6 5 5 12 9 15 11 2 4 1 3 5 13 17 16 17 16 16 15 15 14 14 11 11 12 11 10 8 6 7 6 3 2 1 2 3 5 5 5 5 6 7 7
7 15 12 8 6 3 10 15 12 10 5 5 8 10 15 18 16 17 16 15 14 14 13 12 11 10 11 11 9 7 7 6 5 3 2 1 2 3 5 4 4 5 5 8
10 12 14 10 13 13 6 17 17 14 14 12 13 12 10 15 18 16 14 13 14 14 13 11 11 11 11 10 8 7 6 5 5 4 3 2 1 2 3 5 5 4 6 9
Wind_Direction
69 204 177 177 360 309 226 169 139 120 124 149 169 162 169 172 185 180 170 160 122 83 81 28 26 24 8 25 23 22 15 14 10 2 358 351 351 356 359 4 6 2 0 2
188 170 111 110 130 143 171 151 124 104 114 226 176 184 186 191 193 198 182 168 145 71 33 22 3 9 11 20 23 18 11 9 9 356 354 354 1 358 3 359 359 359 357 355
223 114 142 157 138 130 79 213 160 137 148 164 185 222 201 198 192 191 201 170 179 107 25 23 13 5 9 20 19 8 6 6 7 1 357 360 3 4 5 4 358 354 358 1
83 145 159 157 142 272 170 102 137 140 183 229 207 284 196 191 202 200 187 194 174 159 58 12 2 3 10 10 14 3 1 9 5 5 3 3 360 5 360 355 350 353 354 2
94 155 160 169 82 1 96 127 83 92 231 297 191 256 37 176 210 206 195 188 179 165 63 2 3 2 18 21 3 1 360 11 7 6 8 3 3 0 354 354 349 354 354 359
75 24 349 72 71 89 135 120 84 77 311 248 216 218 196 187 222 205 190 190 175 171 177 23 20 16 36 30 9 11 5 14 10 6 10 11 4 359 358 356 352 352 351 351
136 134 105 163 101 124 206 170 142 215 200 254 133 217 265 193 208 202 186 187 180 171 179 19 24 34 43 28 15 13 9 16 11 10 14 11 9 5 5 1 352 353 347 349
170 195 178 166 289 185 194 215 247 257 217 114 165 231 242 258 145 188 176 178 174 180 162 156 89 61 51 30 19 13 15 14 12 11 12 11 17 7 6 2 357 357 351 342
186 125 99 81 105 345 170 215 50 98 91 276 212 253 199 169 183 184 183 185 191 178 176 167 135 91 52 39 22 14 12 16 12 12 11 13 13 10 5 2 359 357 353 345
153 113 213 114 144 91 274 129 140 205 236 248 193 258 243 197 201 197 199 199 193 181 176 170 158 142 88 39 23 17 15 15 9 8 15 10 9 6 2 2 358 356 352 348
156 143 137 167 205 177 160 199 208 291 224 253 287 229 157 197 200 198 201 195 190 186 183 175 169 152 125 88 33 11 7 16 8 9 8 4 5 1 360 359 353 352 347 345
143 84 162 185 72 3 255 229 183 219 185 241 319 262 191 156 185 193 191 189 183 182 176 175 178 172 158 113 39 8 10 11 4 360 359 359 358 354 354 351 347 345 343 341
178 175 135 161 182 180 214 206 226 71 6 199 222 244 175 180 198 187 183 177 175 177 173 177 182 188 174 156 52 10 12 359 351 350 350 351 349 345 344 339 336 337 336 332
139 154 216 235 61 121 196 197 200 193 211 223 229 253 191 197 189 184 185 180 178 180 180 184 189 184 174 154 50 16 358 354 343 351 349 347 344 340 337 329 328 326 327 326
185 200 171 233 203 211 236 205 201 207 221 217 254 224 238 200 188 194 182 175 178 182 185 187 189 183 179 169 88 9 359 346 346 356 351 347 340 342 331 330 327 323 326 323
182 161 144 252 206 229 245 244 237 225 228 246 254 262 209 204 185 182 186 182 184 184 182 180 180 177 173 153 131 17 355 332 2 359 341 345 343 338 337 332 331 332 327 325
161 146 156 258 7 312 253 221 224 218 207 221 229 241 142 179 185 190 186 187 187 181 175 173 172 165 165 143 120 62 337 339 357 360 342 349 348 339 340 337 338 337 329 331
150 138 118 291 354 255 330 141 237 225 230 223 248 239 186 186 193 181 193 186 182 172 169 166 163 155 143 131 104 95 147 347 5 6 352 354 350 344 338 343 340 335 335 333
321 133 155 226 199 295 291 208 191 187 236 232 227 231 184 133 134 225 186 186 178 165 157 152 139 140 123 129 132 156 192 51 25 16 359 355 348 341 336 341 342 339 337 332
20 2 190 158 218 250 61 179 95 131 273 222 212 224 192 154 207 223 164 158 141 136 139 135 131 129 131 141 153 172 172 115 44 19 356 347 345 337 336 338 336 341 337 341
152 162 210 199 230 268 166 158 164 164 254 340 204 203 164 190 208 105 137 130 133 135 133 129 134 142 146 138 169 176 167 119 28 2 2 355 345 336 347 341 342 343 344 346
171 168 188 206 212 254 139 122 196 186 89 225 204 179 169 137 120 127 132 133 137 137 139 141 140 142 144 149 182 188 159 156 126 24 20 355 357 352 347 343 350 350 356 351
205 198 171 193 213 119 182 167 187 122 140 194 147 148 155 140 154 152 149 150 149 149 147 151 153 151 160 178 199 184 153 155 127 63 23 346 2 353 342 348 355 357 4 356
237 184 228 145 211 201 207 219 146 178 226 153 135 156 151 149 154 148 147 152 153 158 157 158 159 162 168 180 189 155 156 147 139 129 84 2 5 352 352 344 358 359 5 358
174 153 190 256 245 299 238 223 206 195 161 155 148 155 163 146 158 150 152 157 157 158 154 161 165 165 171 172 173 162 155 149 161 153 146 60 359 360 336 339 340 347 357 352
185 178 189 215 195 211 226 203 195 181 189 171 154 154 159 159 156 152 152 158 156 156 153 161 168 163 165 168 163 159 159 169 165 161 168 112 320 347 331 327 329 333 321 333